sat.trackr.live / text

‹ back to catalog

STARLINK-2630

NORAD 48381 · 2021-038AE

PAYLOAD ACTIVE UNKNOWN

§ Identity

Operator
Country
US
Launch date
2021-05-04
Launch site
AFETR
Launch vehicle
Mass (kg)
RCS (m²)

Purposes: comms

External: N2YO · Heavens-Above · Gunter

§ Orbital elements

Epoch: 2026-05-24T23:01:11.373024Z

Period
94.11 min
Inclination
53.1627°
Eccentricity
0.0001305
Mean motion
15.30190527 rev/d
Perigee alt
474.3 km
Apogee alt
476.1 km
Semi-major
6,853.4 km
B*
4.5643e-5
RAAN
353.5247°
Arg perigee
82.9289°
Mean anomaly
277.1861°
Rev number
27,890

§ Raw data

STARLINK-26301 48381U 21038AE  26144.95915941  .00000992  00000+0  45643-4 0  99932 48381  53.1627 353.5247 0001305  82.9289 277.1861 15.30190527278907

JSON: /api/v1/satellites/48381 · /tle

For live sub-satellite position, see the globe view (requires WebGL).

§ Visibility from observer

Set your observer location to see the next 7 days of passes ≥ 10°. The values pass through the URL so the page stays shareable.

No JS? Fill the form by hand. The geolocation button needs JavaScript.